NKS1570 KFLL-KLGA

Flight info

Callsign NKS1570
Flight time 2h 10m
Altitude 35000
Route FEALX2 ETECK GRUBR Y299 SEELO GARIC Q107 HURTS PROUD2
Aircraft A320/M-SDE3FGHIRWY/LB1

Departure

Time 2026-05-03 20:15
Airport Fort Lauderdale Hollywood International Airport (KFLL)

Arrival

Time 2026-05-03 22:25
Airport LaGuardia Airport (KLGA)
Time Latitude Longitude Altitude Speed Heading
2026-05-03 20:15 26.19290 -79.83368 10384 ft 323 kts 54°
2026-05-03 20:15 26.20606 -79.81237 10588 ft 346 kts 53°
2026-05-03 20:15 26.22037 -79.78989 10765 ft 365 kts 52°
2026-05-03 20:15 26.23530 -79.76670 11283 ft 371 kts 52°
2026-05-03 20:16 26.25051 -79.74329 11898 ft 375 kts 52°
2026-05-03 20:16 26.26593 -79.71968 12496 ft 378 kts 52°
2026-05-03 20:16 26.28150 -79.69582 13071 ft 382 kts 52°
2026-05-03 20:16 26.29801 -79.67252 13642 ft 385 kts 44°
2026-05-03 20:17 26.31672 -79.65105 14152 ft 388 kts 43°
2026-05-03 20:17 26.33563 -79.62942 14708 ft 391 kts 43°
2026-05-03 20:17 26.35471 -79.60753 15246 ft 395 kts 43°
2026-05-03 20:17 26.37395 -79.58542 15737 ft 399 kts 43°
2026-05-03 20:18 26.39338 -79.56309 16214 ft 403 kts 43°
2026-05-03 20:18 26.41299 -79.54054 16698 ft 407 kts 43°
2026-05-03 20:18 26.43277 -79.51778 17181 ft 410 kts 43°
2026-05-03 20:18 26.45269 -79.49482 17661 ft 414 kts 43°
2026-05-03 20:19 26.47279 -79.47163 18136 ft 417 kts 43°
2026-05-03 20:19 26.49308 -79.44822 18555 ft 422 kts 43°
2026-05-03 20:19 26.51361 -79.42451 18935 ft 427 kts 43°
2026-05-03 20:19 26.53430 -79.40058 19353 ft 430 kts 43°
2026-05-03 20:20 26.55643 -79.37812 19758 ft 430 kts 33°
2026-05-03 20:20 26.58135 -79.35974 20164 ft 430 kts 27°
2026-05-03 20:20 26.60702 -79.34236 20584 ft 433 kts 27°
2026-05-03 20:20 26.63288 -79.32487 20983 ft 436 kts 27°
2026-05-03 20:21 26.65893 -79.30722 21375 ft 439 kts 27°
2026-05-03 20:21 26.68515 -79.28941 21764 ft 443 kts 27°
2026-05-03 20:21 26.71154 -79.27145 22150 ft 446 kts 27°
2026-05-03 20:21 26.73810 -79.25333 22530 ft 449 kts 27°
2026-05-03 20:22 26.76486 -79.23505 22930 ft 452 kts 27°
2026-05-03 20:22 26.79180 -79.21665 23267 ft 456 kts 27°
2026-05-03 20:22 26.80982 -79.20435 23502 ft 458 kts 27°
2026-05-03 20:22 26.83712 -79.18572 23823 ft 462 kts 27°
2026-05-03 20:23 26.86461 -79.16694 24199 ft 464 kts 27°
2026-05-03 20:23 26.89223 -79.14805 24514 ft 467 kts 27°
2026-05-03 20:23 26.91999 -79.12903 24830 ft 469 kts 27°
2026-05-03 20:23 26.94787 -79.10992 25150 ft 471 kts 27°
2026-05-03 20:24 26.97592 -79.09071 25470 ft 473 kts 27°
2026-05-03 20:24 27.00408 -79.07141 25807 ft 476 kts 27°
2026-05-03 20:24 27.03240 -79.05199 26172 ft 478 kts 27°
2026-05-03 20:24 27.06083 -79.03248 26498 ft 481 kts 26°
2026-05-03 20:25 27.08952 -79.01282 26742 ft 485 kts 26°
2026-05-03 20:25 27.11841 -78.99302 27017 ft 488 kts 26°
2026-05-03 20:25 27.14742 -78.97311 27303 ft 490 kts 26°
2026-05-03 20:25 27.17661 -78.95303 27602 ft 493 kts 26°
2026-05-03 20:26 27.20591 -78.93286 27899 ft 495 kts 26°
2026-05-03 20:26 27.23536 -78.91258 28210 ft 498 kts 26°
2026-05-03 20:26 27.26496 -78.89216 28514 ft 501 kts 26°
2026-05-03 20:26 27.29471 -78.87159 28874 ft 504 kts 26°
2026-05-03 20:27 27.32464 -78.85089 29225 ft 507 kts 26°
2026-05-03 20:27 27.35480 -78.83005 29587 ft 510 kts 26°
2026-05-03 20:27 27.38581 -78.81126 30007 ft 503 kts 17°
2026-05-03 20:27 27.41834 -78.79784 30381 ft 494 kts
2026-05-03 20:28 27.45164 -78.78994 30709 ft 485 kts 359°
2026-05-03 20:28 27.48506 -78.78512 31028 ft 484 kts 359°
2026-05-03 20:28 27.51848 -78.78033 31365 ft 485 kts 359°
2026-05-03 20:28 27.55194 -78.77550 31720 ft 485 kts 359°
2026-05-03 20:29 27.58545 -78.77061 32067 ft 485 kts 359°
2026-05-03 20:29 27.61900 -78.76573 32432 ft 486 kts 358°
2026-05-03 20:29 27.65262 -78.76081 32682 ft 489 kts 358°
2026-05-03 20:29 27.68646 -78.75584 32974 ft 491 kts 358°
2026-05-03 20:30 27.71986 -78.75090 33303 ft 491 kts 358°
2026-05-03 20:30 27.75375 -78.74587 33651 ft 491 kts 358°
2026-05-03 20:30 27.78767 -78.74084 33988 ft 492 kts 358°
2026-05-03 20:30 27.82159 -78.73581 34298 ft 492 kts 358°
2026-05-03 20:31 27.85550 -78.73082 34645 ft 491 kts 358°
2026-05-03 20:31 27.88931 -78.72584 34943 ft 491 kts 358°
2026-05-03 20:31 27.92319 -78.72087 35064 ft 492 kts 358°
2026-05-03 20:32 27.99145 -78.71090 35060 ft 496 kts 358°
2026-05-03 20:32 28.05989 -78.70079 35060 ft 496 kts 358°
2026-05-03 20:33 28.12833 -78.69067 35064 ft 496 kts 358°
2026-05-03 20:33 28.19679 -78.68054 35108 ft 496 kts 357°
2026-05-03 20:34 28.26527 -78.67032 35086 ft 497 kts 358°
2026-05-03 20:34 28.33392 -78.66014 35084 ft 498 kts 357°
2026-05-03 20:35 28.40256 -78.65003 35080 ft 497 kts 357°
2026-05-03 20:35 28.47122 -78.63988 35082 ft 497 kts 357°
2026-05-03 20:36 28.53984 -78.62961 35107 ft 497 kts 357°
2026-05-03 20:36 28.60842 -78.61924 35101 ft 497 kts 357°
2026-05-03 20:37 28.67690 -78.60900 35100 ft 496 kts 357°
2026-05-03 20:37 28.74542 -78.59886 35098 ft 496 kts 357°
2026-05-03 20:38 28.81389 -78.58865 35098 ft 495 kts 356°
2026-05-03 20:38 28.88213 -78.57834 35094 ft 494 kts 356°
2026-05-03 20:39 28.95037 -78.56815 35096 ft 494 kts 356°
2026-05-03 20:39 29.01860 -78.55795 35099 ft 495 kts 356°
2026-05-03 20:40 29.08681 -78.54764 35092 ft 492 kts 356°
2026-05-03 20:40 29.15457 -78.53736 35088 ft 491 kts 356°
2026-05-03 20:41 29.22230 -78.52716 35090 ft 491 kts 356°
2026-05-03 20:41 29.28962 -78.51701 35092 ft 491 kts 356°
2026-05-03 20:42 29.35743 -78.50677 35131 ft 492 kts 356°
2026-05-03 20:42 29.42524 -78.49641 35122 ft 491 kts 356°
2026-05-03 20:43 29.49266 -78.48882 35115 ft 476 kts 346°
2026-05-03 20:43 29.55744 -78.49509 35114 ft 466 kts 341°
2026-05-03 20:44 29.62208 -78.50205 35154 ft 466 kts 342°
2026-05-03 20:44 29.68647 -78.50886 35109 ft 463 kts 341°
2026-05-03 20:45 29.75066 -78.51582 35111 ft 463 kts 341°
2026-05-03 20:45 29.81483 -78.52286 35111 ft 463 kts 341°
2026-05-03 20:46 29.87908 -78.52985 35106 ft 464 kts 341°
2026-05-03 20:46 29.94330 -78.53680 35124 ft 463 kts 342°
2026-05-03 20:47 30.00744 -78.54373 35117 ft 463 kts 342°
2026-05-03 20:47 30.07155 -78.55070 35118 ft 463 kts 342°
2026-05-03 20:48 30.13531 -78.55749 35119 ft 466 kts 345°
2026-05-03 20:48 30.16829 -78.55667 35118 ft 483 kts 355°
2026-05-03 20:48 30.20177 -78.55188 35118 ft 485 kts 355°
2026-05-03 20:49 30.26884 -78.54212 35123 ft 486 kts 355°
2026-05-03 20:49 30.33589 -78.53245 35124 ft 486 kts 355°
2026-05-03 20:50 30.40295 -78.52289 35124 ft 486 kts 355°
2026-05-03 20:50 30.47004 -78.51288 35154 ft 487 kts 356°
2026-05-03 20:51 30.53718 -78.50178 35146 ft 487 kts 356°
2026-05-03 20:51 30.60431 -78.49052 35141 ft 487 kts 356°
2026-05-03 20:52 30.67142 -78.47949 35138 ft 487 kts 356°
2026-05-03 20:52 30.73850 -78.46867 35191 ft 486 kts 356°
2026-05-03 20:53 30.80525 -78.45788 35118 ft 483 kts 356°
2026-05-03 20:53 30.87181 -78.44711 35118 ft 483 kts 356°
2026-05-03 20:54 30.93798 -78.43646 35119 ft 484 kts 356°
2026-05-03 20:54 31.03801 -78.41999 35166 ft 484 kts 356°
2026-05-03 20:55 31.10477 -78.40905 35154 ft 485 kts 356°
2026-05-03 20:55 31.17157 -78.39809 35151 ft 485 kts 356°
2026-05-03 20:56 31.23842 -78.38716 35147 ft 485 kts 356°
2026-05-03 20:56 31.30535 -78.37623 35155 ft 487 kts 356°
2026-05-03 20:57 31.37263 -78.36513 35150 ft 489 kts 357°
2026-05-03 20:57 31.43998 -78.35392 35147 ft 489 kts 357°
2026-05-03 20:58 31.50736 -78.34281 35147 ft 489 kts 357°
2026-05-03 20:58 31.57486 -78.33167 35149 ft 491 kts 356°
2026-05-03 20:59 31.64253 -78.32045 35139 ft 491 kts 356°
2026-05-03 20:59 31.71027 -78.30926 35139 ft 492 kts 356°
2026-05-03 21:00 31.75521 -78.30179 35146 ft 493 kts 356°
2026-05-03 21:00 31.84605 -78.28660 35166 ft 493 kts 356°
2026-05-03 21:01 31.91409 -78.27525 35164 ft 494 kts 356°
2026-05-03 21:01 31.98212 -78.26395 35165 ft 494 kts 356°
2026-05-03 21:02 32.05016 -78.25266 35160 ft 493 kts 356°
2026-05-03 21:02 32.11804 -78.24254 35154 ft 488 kts 354°
2026-05-03 21:03 32.18583 -78.23327 35150 ft 501 kts 354°
2026-05-03 21:03 32.25570 -78.22354 35145 ft 508 kts 355°
2026-05-03 21:04 32.32596 -78.21312 35148 ft 509 kts 355°
2026-05-03 21:04 32.39609 -78.20259 35151 ft 507 kts 355°
2026-05-03 21:05 32.46596 -78.19217 35151 ft 506 kts 355°
2026-05-03 21:05 32.53588 -78.18194 35153 ft 506 kts 354°
2026-05-03 21:06 32.60577 -78.17172 35202 ft 506 kts 354°
2026-05-03 21:06 32.67566 -78.16142 35186 ft 505 kts 354°
2026-05-03 21:07 32.74534 -78.15107 35178 ft 504 kts 354°
2026-05-03 21:07 32.81492 -78.14084 35172 ft 503 kts 354°
2026-05-03 21:08 32.88442 -78.13057 35167 ft 503 kts 354°
2026-05-03 21:08 32.95392 -78.12019 35164 ft 503 kts 354°
2026-05-03 21:09 33.02342 -78.10983 35160 ft 503 kts 354°
2026-05-03 21:09 33.09297 -78.09951 35159 ft 503 kts 354°
2026-05-03 21:10 33.15064 -78.09093 35150 ft 500 kts 354°
2026-05-03 21:10 33.21948 -78.08053 35143 ft 498 kts 354°
2026-05-03 21:11 33.29948 -78.06858 35145 ft 498 kts 354°
2026-05-03 21:11 33.36832 -78.05830 35145 ft 499 kts 354°
2026-05-03 21:12 33.42603 -78.04972 35179 ft 499 kts 354°
2026-05-03 21:12 33.49496 -78.03936 35168 ft 499 kts 354°
2026-05-03 21:13 33.56382 -78.02891 35159 ft 499 kts 354°
2026-05-03 21:13 33.63270 -78.01845 35220 ft 499 kts 354°
2026-05-03 21:14 33.70073 -78.00816 35127 ft 494 kts 354°
2026-05-03 21:14 33.76892 -77.99792 35110 ft 494 kts 354°
2026-05-03 21:15 33.83725 -77.98758 35107 ft 495 kts 354°
2026-05-03 21:15 33.90560 -77.97720 35151 ft 495 kts 354°
2026-05-03 21:16 33.97396 -77.96656 35138 ft 495 kts 355°
2026-05-03 21:16 34.04220 -77.95568 35115 ft 494 kts 354°
2026-05-03 21:17 34.11038 -77.94492 35109 ft 494 kts 354°
2026-05-03 21:17 34.17856 -77.93422 35121 ft 492 kts 355°
2026-05-03 21:18 34.24636 -77.92358 35112 ft 491 kts 355°
2026-05-03 21:18 34.31421 -77.91295 35110 ft 491 kts 355°
2026-05-03 21:19 34.38200 -77.90225 35111 ft 492 kts 355°
2026-05-03 21:19 34.44966 -77.89152 35119 ft 489 kts 355°
2026-05-03 21:20 34.51711 -77.88092 35122 ft 488 kts 355°
2026-05-03 21:20 34.58455 -77.87032 35116 ft 489 kts 355°
2026-05-03 21:21 34.65153 -77.85967 35153 ft 488 kts 356°
2026-05-03 21:21 34.71858 -77.84891 35107 ft 485 kts 356°
2026-05-03 21:22 34.78550 -77.83815 35110 ft 485 kts 355°
2026-05-03 21:22 34.85248 -77.82746 35114 ft 486 kts 356°
2026-05-03 21:23 34.88599 -77.81900 35112 ft 498 kts
2026-05-03 21:23 34.91942 -77.80781 35128 ft 498 kts
2026-05-03 21:23 34.98605 -77.78516 35125 ft 497 kts
2026-05-03 21:24 35.05268 -77.76244 35131 ft 497 kts
2026-05-03 21:24 35.11934 -77.73983 35133 ft 497 kts
2026-05-03 21:25 35.18593 -77.71725 35140 ft 496 kts
2026-05-03 21:25 35.25241 -77.69475 35124 ft 495 kts
2026-05-03 21:26 35.31880 -77.67211 35115 ft 495 kts
2026-05-03 21:26 35.38513 -77.64943 35111 ft 495 kts
2026-05-03 21:27 35.45140 -77.62684 35110 ft 495 kts
2026-05-03 21:27 35.51727 -77.60430 35113 ft 495 kts
2026-05-03 21:28 35.58360 -77.58156 35094 ft 495 kts
2026-05-03 21:28 35.64998 -77.55868 35136 ft 495 kts
2026-05-03 21:29 35.71625 -77.53579 35124 ft 494 kts
2026-05-03 21:29 35.78244 -77.51330 35118 ft 492 kts
2026-05-03 21:30 35.84862 -77.49191 35148 ft 491 kts
2026-05-03 21:30 35.91481 -77.47076 35132 ft 491 kts
2026-05-03 21:31 35.98095 -77.44923 35124 ft 492 kts
2026-05-03 21:31 36.04708 -77.42742 35122 ft 492 kts
2026-05-03 21:32 36.11315 -77.40570 35108 ft 489 kts
2026-05-03 21:32 36.17874 -77.38413 35096 ft 487 kts
2026-05-03 21:33 36.24428 -77.36265 35096 ft 488 kts
2026-05-03 21:33 36.30991 -77.34106 35099 ft 488 kts
2026-05-03 21:34 36.37553 -77.31938 35129 ft 488 kts
2026-05-03 21:34 36.44104 -77.29766 35125 ft 487 kts
2026-05-03 21:35 36.50651 -77.27591 35126 ft 487 kts
2026-05-03 21:35 36.57190 -77.25423 35116 ft 485 kts
2026-05-03 21:36 36.63684 -77.23264 35097 ft 482 kts
2026-05-03 21:36 36.70181 -77.21108 35100 ft 483 kts
2026-05-03 21:37 36.76687 -77.18937 35096 ft 484 kts
2026-05-03 21:37 36.83154 -77.16763 35122 ft 485 kts
2026-05-03 21:38 36.89659 -77.14583 35115 ft 484 kts
2026-05-03 21:38 36.96162 -77.12408 35104 ft 484 kts
2026-05-03 21:39 37.02662 -77.10226 35124 ft 483 kts
2026-05-03 21:39 37.09118 -77.08041 35077 ft 480 kts
2026-05-03 21:40 37.15564 -77.05873 35080 ft 480 kts
2026-05-03 21:40 37.22018 -77.03696 35088 ft 480 kts
2026-05-03 21:41 37.28471 -77.01510 35131 ft 480 kts
2026-05-03 21:41 37.34927 -76.99320 35120 ft 480 kts
2026-05-03 21:42 37.41371 -76.97134 35113 ft 480 kts
2026-05-03 21:42 37.47761 -76.94469 35138 ft 497 kts 17°
2026-05-03 21:43 37.53887 -76.90395 35099 ft 498 kts 18°
2026-05-03 21:43 37.60001 -76.86302 35101 ft 498 kts 18°
2026-05-03 21:44 37.66132 -76.82225 35082 ft 499 kts 18°
2026-05-03 21:44 37.72273 -76.78138 35082 ft 500 kts 18°
2026-05-03 21:45 37.78421 -76.74018 35086 ft 500 kts 18°
2026-05-03 21:45 37.84572 -76.69893 35090 ft 501 kts 18°
2026-05-03 21:46 37.90738 -76.65794 35130 ft 500 kts 17°
2026-05-03 21:46 37.96950 -76.61868 35104 ft 498 kts 16°
2026-05-03 21:47 38.03165 -76.58002 35084 ft 498 kts 16°
2026-05-03 21:47 38.09371 -76.54093 35073 ft 498 kts 17°
2026-05-03 21:48 38.15547 -76.50152 35060 ft 495 kts 17°
2026-05-03 21:48 38.21692 -76.46221 35043 ft 495 kts 17°
2026-05-03 21:49 38.27851 -76.42265 35075 ft 498 kts 19°
2026-05-03 21:49 38.30770 -76.39903 35059 ft 511 kts 28°
2026-05-03 21:49 38.33630 -76.37113 35108 ft 512 kts 29°
2026-05-03 21:50 38.39241 -76.31628 35095 ft 511 kts 29°
2026-05-03 21:50 38.44845 -76.26141 35065 ft 497 kts 29°
2026-05-03 21:51 38.47566 -76.23460 34900 ft 491 kts 28°
2026-05-03 21:51 38.50255 -76.20813 34666 ft 487 kts 28°
2026-05-03 21:51 38.52928 -76.18180 34462 ft 483 kts 28°
2026-05-03 21:51 38.55575 -76.15578 34249 ft 478 kts 28°
2026-05-03 21:52 38.58196 -76.13003 33849 ft 474 kts 28°
2026-05-03 21:52 38.60804 -76.10443 33287 ft 472 kts 28°
2026-05-03 21:52 38.63399 -76.07894 32783 ft 469 kts 27°
2026-05-03 21:52 38.65997 -76.05399 32286 ft 464 kts 26°
2026-05-03 21:53 38.68594 -76.02973 31778 ft 460 kts 25°
2026-05-03 21:53 38.71184 -76.00588 31291 ft 457 kts 25°
2026-05-03 21:53 38.73759 -75.98223 30846 ft 454 kts 26°
2026-05-03 21:53 38.76321 -75.95861 30317 ft 452 kts 26°
2026-05-03 21:54 38.78857 -75.93506 29818 ft 449 kts 26°
2026-05-03 21:54 38.81366 -75.91156 29347 ft 444 kts 26°
2026-05-03 21:54 38.83845 -75.88821 28885 ft 439 kts 27°
2026-05-03 21:54 38.86288 -75.86509 28442 ft 434 kts 27°
2026-05-03 21:55 38.88701 -75.84228 28013 ft 429 kts 27°
2026-05-03 21:55 38.91093 -75.81974 27587 ft 424 kts 27°
2026-05-03 21:55 38.93459 -75.79748 27220 ft 419 kts 27°
2026-05-03 21:55 38.95798 -75.77546 26868 ft 414 kts 28°
2026-05-03 21:56 38.98101 -75.75376 26685 ft 409 kts 28°
2026-05-03 21:56 39.00357 -75.73246 26483 ft 407 kts 28°
2026-05-03 21:56 39.02633 -75.71100 26275 ft 405 kts 28°
2026-05-03 21:56 39.04900 -75.68963 26073 ft 403 kts 28°
2026-05-03 21:57 39.07155 -75.66829 25862 ft 402 kts 28°
2026-05-03 21:57 39.09405 -75.64696 25661 ft 401 kts 28°
2026-05-03 21:57 39.11644 -75.62571 25464 ft 399 kts 28°
2026-05-03 21:57 39.13872 -75.60451 25282 ft 397 kts 28°
2026-05-03 21:58 39.16085 -75.58342 25064 ft 395 kts 28°
2026-05-03 21:58 39.18288 -75.56238 24865 ft 393 kts 28°
2026-05-03 21:58 39.20484 -75.54148 24667 ft 392 kts 28°
2026-05-03 21:58 39.22676 -75.52064 24471 ft 390 kts 28°
2026-05-03 21:59 39.24868 -75.50016 24277 ft 388 kts 27°
2026-05-03 21:59 39.27075 -75.48030 24084 ft 386 kts 26°
2026-05-03 21:59 39.29290 -75.46083 23890 ft 384 kts 26°
2026-05-03 21:59 39.31498 -75.44157 23706 ft 383 kts 26°
2026-05-03 22:00 39.32958 -75.42884 23562 ft 382 kts 26°
2026-05-03 22:00 39.35153 -75.40959 23368 ft 379 kts 26°
2026-05-03 22:00 39.37323 -75.39043 23176 ft 377 kts 26°
2026-05-03 22:00 39.39481 -75.37127 22999 ft 376 kts 26°
2026-05-03 22:01 39.41631 -75.35210 22803 ft 375 kts 27°
2026-05-03 22:01 39.43773 -75.33299 22618 ft 373 kts 27°
2026-05-03 22:01 39.45908 -75.31394 22423 ft 372 kts 27°
2026-05-03 22:01 39.48039 -75.29491 22238 ft 371 kts 27°
2026-05-03 22:02 39.50159 -75.27594 22046 ft 370 kts 27°
2026-05-03 22:02 39.52269 -75.25688 21697 ft 371 kts 27°
2026-05-03 22:02 39.54361 -75.23755 21283 ft 368 kts 28°
2026-05-03 22:02 39.56425 -75.21815 20874 ft 365 kts 28°
2026-05-03 22:03 39.58467 -75.19886 20478 ft 361 kts 28°
2026-05-03 22:03 39.60490 -75.17976 20081 ft 358 kts 28°
2026-05-03 22:03 39.62495 -75.16085 19695 ft 355 kts 28°
2026-05-03 22:03 39.64484 -75.14206 19309 ft 352 kts 28°
2026-05-03 22:04 39.66460 -75.12340 18931 ft 350 kts 28°
2026-05-03 22:04 39.68400 -75.10526 18555 ft 347 kts 27°
2026-05-03 22:04 39.70408 -75.08742 18153 ft 343 kts 26°
2026-05-03 22:04 39.72393 -75.07041 17762 ft 340 kts 26°
2026-05-03 22:05 39.74345 -75.05390 17401 ft 338 kts 25°
2026-05-03 22:05 39.76309 -75.03731 17031 ft 336 kts 25°
2026-05-03 22:05 39.78260 -75.02077 16663 ft 334 kts 26°
2026-05-03 22:05 39.80198 -75.00424 16296 ft 332 kts 26°
2026-05-03 22:06 39.82119 -74.98775 15922 ft 330 kts 26°
2026-05-03 22:06 39.84028 -74.97124 15563 ft 328 kts 26°
2026-05-03 22:06 39.85920 -74.95477 15212 ft 327 kts 27°
2026-05-03 22:06 39.87791 -74.93800 14851 ft 325 kts 28°
2026-05-03 22:07 39.89638 -74.92118 14505 ft 324 kts 28°
2026-05-03 22:07 39.91476 -74.90431 14157 ft 322 kts 30°
2026-05-03 22:07 39.93148 -74.88455 13802 ft 328 kts 42°
2026-05-03 22:07 39.94670 -74.86257 13408 ft 326 kts 42°
2026-05-03 22:08 39.96184 -74.84080 13060 ft 323 kts 42°
2026-05-03 22:08 39.97687 -74.81928 12752 ft 319 kts 41°
2026-05-03 22:08 39.99173 -74.79802 12435 ft 316 kts 41°
2026-05-03 22:08 40.00648 -74.77688 12093 ft 314 kts 41°
2026-05-03 22:09 40.02110 -74.75592 11753 ft 311 kts 41°
2026-05-03 22:09 40.03562 -74.73510 11422 ft 309 kts 41°
2026-05-03 22:09 40.05002 -74.71443 11081 ft 307 kts 41°
2026-05-03 22:10 40.07821 -74.67388 10598 ft 296 kts 41°
2026-05-03 22:10 40.09200 -74.65408 10253 ft 295 kts 41°
2026-05-03 22:10 40.10572 -74.63436 10058 ft 290 kts 41°
2026-05-03 22:10 40.11917 -74.61502 10050 ft 288 kts 41°
2026-05-03 22:11 40.13267 -74.59562 9804 ft 290 kts 41°
2026-05-03 22:11 40.14625 -74.57611 9397 ft 290 kts 41°
2026-05-03 22:11 40.15952 -74.55695 9152 ft 286 kts 41°
2026-05-03 22:11 40.17299 -74.53749 8967 ft 284 kts 41°
2026-05-03 22:12 40.18606 -74.51864 8789 ft 283 kts 41°
2026-05-03 22:12 40.19929 -74.49954 8613 ft 283 kts 41°
2026-05-03 22:12 40.21279 -74.48096 8432 ft 281 kts 38°
2026-05-03 22:12 40.22673 -74.46314 8266 ft 280 kts 37°
2026-05-03 22:13 40.24081 -74.44562 8115 ft 279 kts 37°
2026-05-03 22:13 40.25493 -74.42817 8043 ft 279 kts 37°
2026-05-03 22:13 40.26905 -74.41066 8051 ft 280 kts 37°
2026-05-03 22:13 40.28313 -74.39307 8055 ft 280 kts 37°
2026-05-03 22:14 40.29716 -74.37543 8053 ft 279 kts 38°
2026-05-03 22:14 40.31118 -74.35776 8054 ft 280 kts 38°
2026-05-03 22:14 40.32517 -74.34005 8048 ft 280 kts 37°
2026-05-03 22:14 40.33940 -74.32205 7527 ft 289 kts 38°
2026-05-03 22:15 40.35371 -74.30393 7359 ft 281 kts 38°
2026-05-03 22:15 40.36753 -74.28636 7222 ft 273 kts 38°
2026-05-03 22:15 40.38091 -74.26934 7107 ft 264 kts 38°
2026-05-03 22:15 40.39384 -74.25283 7031 ft 253 kts 37°
2026-05-03 22:16 40.40613 -74.23711 7030 ft 240 kts 37°
2026-05-03 22:16 40.41787 -74.22210 7031 ft 234 kts 37°
2026-05-03 22:16 40.42957 -74.20726 7029 ft 234 kts 37°
2026-05-03 22:16 40.44127 -74.19247 7029 ft 233 kts 37°
2026-05-03 22:17 40.45293 -74.17769 7037 ft 233 kts 37°
2026-05-03 22:17 40.46460 -74.16285 7035 ft 233 kts 37°
2026-05-03 22:17 40.47611 -74.14820 6959 ft 235 kts 37°
2026-05-03 22:17 40.48880 -74.13426 6550 ft 237 kts 30°
2026-05-03 22:18 40.50190 -74.12176 6398 ft 229 kts 28°
2026-05-03 22:18 40.51482 -74.10971 6145 ft 226 kts 28°
2026-05-03 22:18 40.52766 -74.09780 5844 ft 226 kts 28°
2026-05-03 22:18 40.54049 -74.08591 5537 ft 226 kts 28°
2026-05-03 22:19 40.55330 -74.07403 5261 ft 225 kts 28°
2026-05-03 22:19 40.56596 -74.06223 4973 ft 225 kts 29°
2026-05-03 22:19 40.57877 -74.05026 4685 ft 224 kts 29°
2026-05-03 22:19 40.59146 -74.03841 4407 ft 223 kts 29°
2026-05-03 22:20 40.60409 -74.02657 4126 ft 222 kts 29°
2026-05-03 22:20 40.61673 -74.01470 3746 ft 226 kts 29°
2026-05-03 22:20 40.62965 -74.00262 3450 ft 226 kts 29°
2026-05-03 22:20 40.64225 -73.99074 3296 ft 219 kts 29°
2026-05-03 22:21 40.65444 -73.97925 3194 ft 213 kts 29°
2026-05-03 22:21 40.66632 -73.96824 3094 ft 205 kts 27°
2026-05-03 22:21 40.67785 -73.95817 2995 ft 200 kts 26°
2026-05-03 22:21 40.68958 -73.94822 2765 ft 195 kts 26°
2026-05-03 22:22 40.70061 -73.93865 2475 ft 190 kts 26°
2026-05-03 22:22 40.71014 -73.92718 2290 ft 183 kts 42°
2026-05-03 22:22 40.71762 -73.91420 2075 ft 171 kts 53°
2026-05-03 22:22 40.72157 -73.89981 1953 ft 166 kts 72°
2026-05-03 22:23 40.72385 -73.88510 1744 ft 162 kts 71°
2026-05-03 22:23 40.72624 -73.87065 1496 ft 161 kts 71°
2026-05-03 22:23 40.72908 -73.85655 1302 ft 153 kts 57°
2026-05-03 22:23 40.73524 -73.84549 1149 ft 146 kts 34°
2026-05-03 22:24 40.74326 -73.83783 908 ft 139 kts 19°
2026-05-03 22:24 40.75223 -73.83505 652 ft 127 kts 348°
2026-05-03 22:24 40.76063 -73.83764 494 ft 124 kts 329°
2026-05-03 22:24 40.76656 -73.84533 237 ft 124 kts 299°
2026-05-03 22:25 40.77104 -73.85498 104 ft 124 kts 301°
2026-05-03 22:25 40.77536 -73.86416 16 ft 106 kts 302°
2026-05-03 22:25 40.77857 -73.87073 15 ft 61 kts 302°
2026-05-03 22:25 40.78008 -73.87393 14 ft 32 kts 302°
2026-05-03 22:26 40.78062 -73.87543 15 ft 14 kts 265°
2026-05-03 22:26 40.78033 -73.87634 17 ft 5 kts 227°
2026-05-03 22:26 40.78000 -73.87668 15 ft 8 kts 213°
2026-05-03 22:26 40.77954 -73.87707 18 ft 8 kts 212°
2026-05-03 22:27 40.77875 -73.87773 19 ft 19 kts 214°
2026-05-03 22:27 40.77759 -73.87867 21 ft 19 kts 211°
2026-05-03 22:27 40.77656 -73.87955 21 ft 19 kts 213°
2026-05-03 22:27 40.77535 -73.88055 21 ft 22 kts 212°
2026-05-03 22:28 40.77400 -73.88168 20 ft 23 kts 207°
2026-05-03 22:28 40.77297 -73.88252 21 ft 12 kts 212°
2026-05-03 22:28 40.77288 -73.88335 21 ft 9 kts 278°
2026-05-03 22:28 40.77294 -73.88385 19 ft 4 kts 326°
2026-05-03 22:29 40.77329 -73.88381 19 ft 3 kts
2026-05-03 22:29 40.77336 -73.88380 19 ft 0 kts
2026-05-03 22:32 40.77337 -73.88380 19 ft 0 kts